San Angelo, TX

11:33 PM CST on February 24, 2017 (GMT -0600)
San Angelo Regional-Mathis

Weather History for KSJT - April, 2014

Change the Weather History Date:

Tuesday, April 15, 2014

  Actual Average Record
Temperature  
Mean Temperature 49 °F 66 °F  
Max Temperature 68 °F 80 °F 98 °F (2006)
Min Temperature 29 °F 52 °F 28 °F (1928)
Degree Days  
Heating Degree Days 16 3  
Month to date heating degree days 59 60  
Since 1 July heating degree days 2461 2278  
Cooling Degree Days 0 4  
Month to date cooling degree days 95 43  
Year to date cooling degree days 153 81  
Moisture  
Dew Point 14 °F    
Average Humidity 35    
Maximum Humidity 58    
Minimum Humidity 11    
Precipitation  
Precipitation 0.00 in 0.05 in 1.59 in (1977)
Month to date precipitation 0.26 0.64  
Year to date precipitation 0.37 4.42  
Snow  
Snow 0.00 in 0.00 in 0.00 in (2002)
Month to date snowfall 0.0 0.0  
Since 1 July snowfall 1.6 2.2  
Snow Depth 0.00 in    
Sea Level Pressure  
Sea Level Pressure 30.23 in    
Wind  
Wind Speed 6 mph (SSW)    
Max Wind Speed 16 mph    
Max Gust Speed 24 mph    
Visibility 10 miles    
Events      
T = Trace of Precipitation, MM = Missing Value Source: NWS Daily Summary

Daily Weather History Graph

Daily Weather History Graph

Search for Another Location

Airport or City:

Trip Planner

Search our weather history database for the weather conditions in past years. The results will help you decide how hot, cold, wet, or windy it might be!

Date:

Astronomy

Apr. 15, 2014 Rise Set
Actual Time 7:13 AM CDT 8:10 PM CDT
Civil Twilight 6:48 AM CDT 8:35 PM CDT
Nautical Twilight 6:19 AM CDT 9:05 PM CDT
Astronomical Twilight 5:49 AM CDT 9:35 PM CDT
Moon 8:50 PM CDT (4/15) 7:23 AM CDT (4/15)
Length of Visible Light 13h 46m
Length of Day
12h 56m
Full, 100% of the Moon is Illuminated
Apr 15
Full
Apr 22
Last Quarter
Apr 29
New
May 6
First Quarter
May 14
Full

Hourly Weather History & Observations

Time (CDT) Temp. Windchill Dew Point Humidity Pressure Visibility Wind Dir Wind Speed Gust Speed Precip Events Conditions
1:51 AM 42.1 °F 37.7 °F 19.0 °F 40% 30.34 in 10.0 mi NNW 6.9 mph - N/A   Clear
2:51 AM 36.0 °F 33.3 °F 18.0 °F 48% 30.34 in 10.0 mi West 3.5 mph - N/A   Clear
3:51 AM 34.0 °F 29.8 °F 16.0 °F 48% 30.34 in 10.0 mi West 4.6 mph - N/A   Clear
4:51 AM 34.0 °F 28.8 °F 17.1 °F 50% 30.34 in 10.0 mi West 5.8 mph - N/A   Clear
5:51 AM 30.9 °F 26.2 °F 16.0 °F 54% 30.34 in 10.0 mi West 4.6 mph - N/A   Clear
6:51 AM 28.9 °F 25.2 °F 16.0 °F 58% 30.35 in 10.0 mi WSW 3.5 mph - N/A   Clear
7:51 AM 33.1 °F 28.7 °F 19.0 °F 56% 30.37 in 10.0 mi West 4.6 mph - N/A   Clear
8:51 AM 39.9 °F - 19.0 °F 43% 30.36 in 10.0 mi Calm Calm - N/A   Clear
9:51 AM 48.0 °F - 15.1 °F 27% 30.35 in 10.0 mi Variable 3.5 mph - N/A   Clear
10:51 AM 51.1 °F - 15.1 °F 24% 30.35 in 10.0 mi Calm Calm - N/A   Clear
1:51 PM 59.0 °F - 10.0 °F 14% 30.24 in 10.0 mi Variable 6.9 mph - N/A   Clear
3:51 PM 64.9 °F - 8.1 °F 11% 30.17 in 10.0 mi SSE 8.1 mph - N/A   Clear
4:51 PM 66.9 °F - 10.0 °F 11% 30.12 in 10.0 mi South 5.8 mph 19.6 mph N/A   Clear
5:51 PM 66.9 °F - 10.9 °F 11% 30.09 in 10.0 mi South 13.8 mph 20.7 mph N/A   Clear
6:51 PM 66.9 °F - 10.9 °F 11% 30.07 in 10.0 mi South 11.5 mph - N/A   Clear
7:51 PM 64.0 °F - 12.9 °F 14% 30.05 in 10.0 mi South 9.2 mph - N/A   Clear
8:51 PM 59.0 °F - 14.0 °F 17% 30.05 in 10.0 mi South 5.8 mph - N/A   Clear
9:51 PM 52.0 °F - 12.9 °F 21% 30.05 in 10.0 mi SSE 8.1 mph - N/A   Clear
10:51 PM 48.0 °F - 12.9 °F 24% 30.04 in 10.0 mi SSE 6.9 mph - N/A   Clear
11:51 PM 43.0 °F 38.8 °F 14.0 °F 31% 30.04 in 10.0 mi South 6.9 mph - N/A   Clear